Location: *
(49.5705°S, 176.0037°W)
Time: 22:04:12
(UTC+00:00)

Daily predictions for brighter satellites

Satellite Brightness Start Highest point End
(mag) Time Altitude Azimuth Time Altitude Azimuth Time Altitude Azimuth
USA 215 4.3 15:05:37 10° ESE 15:10:08 39° SE 15:10:08 39° SE
ATLAS 3B R/B 4.0 15:17:03 28° SSE 15:17:03 28° SSE 15:22:09 10° ESE
SL-16 R/B 4.2 15:25:19 20° SSE 15:25:19 20° SSE 15:27:02 10° SSE
ISS -0.2 15:52:14 11° E 15:52:14 11° E 15:52:27 10° E
SL-16 R/B 4.4 15:46:32 10° SE 15:51:56 29° E 15:57:17 10° NNE
SeaSat 1 4.2 15:48:58 10° SSE 15:50:55 24° SSE 15:50:55 24° SSE
SJ 16-02 3.2 15:57:01 29° ESE 15:57:01 29° ESE 16:00:31 10° ENE
Cosmos 1943 3.8 16:01:49 49° SSE 16:01:49 49° SSE 16:05:56 10° SSE
Cosmos 962 Rocket 4.5 16:03:55 81° S 16:03:55 81° S 16:10:01 10° S
Cosmos 2285 Rocket 4.0 16:05:28 79° S 16:05:28 79° S 16:11:38 10° SSE
MOS 1 Rocket 4.4 16:02:42 10° NNE 16:05:41 39° NE 16:05:41 39° NE
Cosmos 407 Rocket 3.5 16:25:56 68° S 16:26:37 82° ESE 16:31:56 10° NNE
Cosmos 2084 4.1 16:31:07 48° SE 16:31:07 48° SE 16:34:12 10° SE
Cosmos 1603 3.7 16:31:08 44° NNW 16:33:01 82° ENE 16:38:43 10° SSE
SL-8 Rocket 3.9 16:41:20 41° NW 16:43:21 61° WSW 16:49:35 10° S
USA 281 3.6 16:37:02 10° SSE 16:43:40 65° ENE 16:50:13 10° NNW
Cosmos 1315 Rocket 4.1 16:40:47 10° NNE 16:44:22 39° E 16:48:01 10° SSE
Cosmos 1809 Rocket 4.5 16:44:07 53° W 16:44:23 53° W 16:50:18 10° NNW
USA 229 DEB 3.6 16:42:44 33° SSW 16:45:51 71° SE 16:51:49 10° NE
USA 229 3.6 16:42:46 32° SSW 16:45:55 70° SE 16:51:51 10° NE
Cosmos 1869 3.7 16:46:52 10° N 16:50:17 53° E 16:53:47 10° SSE
Cosmos 2341 Rocket 4.0 16:47:49 28° NW 16:51:02 56° WSW 16:57:14 10° S
CORIOLIS 4.2 16:48:12 10° NNE 16:53:38 80° ESE 16:59:05 10° SSW
Cosmos 2251 Rocket 3.8 16:50:38 21° SSW 16:54:15 68° ESE 16:59:30 10° NNE
USA 215 3.7 16:47:56 10° E 16:54:19 53° SSE 16:57:28 30° SW
Landsat 7 3.7 16:50:02 10° NNE 16:54:44 88° ESE 16:58:27 17° SSW
Cosmos 2218 Rocket 4.0 16:49:34 10° NNW 16:55:48 59° WSW 17:02:03 10° S
Cosmos 1300 Rocket 4.4 16:53:13 10° NNE 16:57:26 50° E 17:01:41 10° SSE
Resurs 01 Rocket 4.4 16:55:26 10° E 16:58:00 15° ESE 17:00:34 10° SSE
Meteor 2-21 4.4 16:52:11 10° SSW 16:58:10 57° W 17:04:06 10° N
Gbstr 26 Del rocket 3.6 16:56:51 49° W 16:58:25 80° NNW 17:04:54 10° ENE
Cosmos 921 Rocket 4.5 17:01:54 24° NNW 17:01:54 24° NNW 17:03:58 10° N
Cosmos 304 Rocket 4.0 17:00:52 47° WNW 17:00:52 47° WNW 17:05:06 10° N
Cosmos 1025 Rocket 3.7 17:01:58 36° NNW 17:01:58 36° NNW 17:04:46 10° N
ATLAS 2AS CENTAUR R/B 3.0 16:53:35 10° NNW 17:00:43 72° NE 17:08:04 10° SE
Cosmos 1908 Rocket 3.5 16:57:37 10° N 17:02:06 87° E 17:06:37 10° S
SL-16 R/B 3.8 17:07:10 18° SSW 17:07:10 18° SSW 17:10:28 10° S
ATLAS 3B R/B 2.7 17:04:18 23° SW 17:08:23 70° SE 17:15:01 10° NE
Cosmos 2221 Rocket 3.5 17:07:08 27° SSW 17:09:29 66° W 17:13:52 10° N
Cosmos 332 Rocket 4.4 17:06:46 13° SSW 17:11:05 57° ESE 17:15:54 10° NE
Cosmos 1697 Rocket 3.3 17:07:49 13° SSW 17:12:55 58° SE 17:18:31 10° NE
Cosmos 1484 Rocket 2.3 17:12:20 10° N 17:15:47 70° WNW 17:16:28 52° SW
Cosmos 1782 Rocket 4.0 17:12:10 10° N 17:16:32 64° E 17:20:57 10° SSE
Cosmos 2366 rocket 4.4 17:14:13 10° NW 17:20:05 38° WSW 17:25:59 10° S
Cosmos 1356 Rocket 3.6 17:18:18 10° N 17:22:21 71° E 17:26:30 10° SSE
Cosmos 371 Rocket 3.9 17:24:12 33° W 17:24:43 34° WNW 17:29:02 10° NNW
ISS -3.6 17:25:13 37° NW 17:26:25 72° NNE 17:29:54 10° ESE
Cosmos 2239 Rocket 4.4 17:22:12 10° NNW 17:28:22 72° WSW 17:34:37 10° S
SeaSat 1 4.0 17:27:16 10° S 17:30:32 18° SW 17:30:32 18° SW
SPOT 1/Viking Rocket 3.5 17:26:02 10° NNE 17:31:16 89° W 17:36:35 10° SSW
Cosmos 2056 Rocket 4.0 17:26:46 10° N 17:31:50 63° ENE 17:37:02 10° SSE
SJ-12 4.1 17:28:47 10° NNE 17:32:33 66° ESE 17:36:23 10° S
IRS-1C 4.3 17:28:56 10° NNE 17:34:17 77° ESE 17:39:43 10° SSW
SJ 16-02 1.9 17:33:34 29° WSW 17:34:51 36° WNW 17:38:48 10° N
CZ-2D R/B 3.4 17:32:10 10° NNE 17:35:05 52° ESE 17:38:03 10° S
Cosmos 1656 4.1 17:32:27 23° SW 17:35:22 40° WNW 17:40:28 10° N
SL-16 R/B 2.6 17:29:39 10° S 17:35:53 61° WSW 17:42:04 10° NW
SL-16 R/B 4.5 17:32:23 10° S 17:36:01 17° SSE 17:39:37 10° ESE
Cosmos 2058 3.1 17:32:29 10° S 17:36:33 67° E 17:40:31 10° NNE
Meteor 2-8 Rocket 4.5 17:30:42 10° NNW 17:36:48 59° WSW 17:42:57 10° S
Thor Agena Rocket 3.6 17:32:46 10° NNE 17:38:05 89° ESE 17:43:29 10° SSW
Cosmos 1821 Rocket 4.4 17:39:11 10° NW 17:44:48 36° WSW 17:50:30 10° S
Cosmos 1943 4.4 17:43:38 20° WSW 17:45:03 22° SW 17:49:25 10° S
Cosmos 1980 Rocket 3.0 17:40:31 10° SSW 17:46:01 49° SE 17:51:30 10° NE
Cosmos 968 Rocket 3.7 17:42:49 10° SSW 17:47:59 70° ESE 17:53:06 10° NNE
Cosmos 1727 Rocket 4.5 17:42:36 10° SSW 17:48:26 39° W 17:54:15 10° NNW
CBERS-1 4.4 17:44:20 10° NNW 17:49:11 41° W 17:54:06 10° SSW
Cosmos 1833 Rocket 2.7 17:48:17 10° NNW 17:53:58 87° ENE 17:59:43 10° SSE
Cosmos 1867 3.7 17:49:47 10° WNW 17:55:06 54° SW 18:00:27 10° SE
SMAP 3.8 17:51:21 10° NNW 17:55:34 32° W 17:59:50 10° SSW
Cosmos 1190 Rocket 4.4 17:50:55 11° SW 17:55:39 43° WNW 18:00:38 10° N
USA 308 2.2 17:55:56 22° SE 17:55:56 22° SE 17:57:38 10° E
Cosmos 2123 Rocket 4.1 17:51:50 10° SSW 17:57:56 56° W 18:03:59 10° NNW
IRS-P3 4.2 17:53:00 10° NNE 17:58:23 86° ESE 18:03:50 10° SSW
ARIANE 5 R/B 2.5 17:54:01 10° N 17:59:00 66° WNW 18:04:04 10° SSW
USA 307 0.6 17:58:18 30° WNW 17:59:10 80° SSW 18:00:39 10° ESE
Cosmos 292 Rocket 3.8 17:58:08 10° SSW 18:02:58 89° WNW 18:07:47 10° NNE
Resurs 1-3 3.5 18:01:46 10° N 18:06:07 72° WNW 18:10:30 10° SSW
Meteor 1-28 Rocket 3.7 18:07:36 10° S 18:10:32 28° WSW 18:13:24 10° NW
Cosmos 2360 Rocket 4.4 18:07:21 10° S 18:10:51 16° SSE 18:14:20 10° ESE
YAOGAN 1 2.5 18:07:04 10° N 18:11:22 76° WNW 18:15:43 10° SSW
Cosmos 1605 Rocket 4.1 18:06:05 10° N 18:12:22 88° E 18:18:38 10° S
Cosmos 1934 Rocket 4.1 18:08:31 10° NNW 18:14:46 56° WSW 18:21:09 10° S
CZ-2D R/B 3.9 18:11:52 10° NNE 18:16:04 67° ESE 18:20:16 10° S
Cosmos 2333 Rocket 4.1 18:12:08 10° SSW 18:16:48 24° SE 18:21:26 10° E
Cosmos 807 4.3 18:14:41 10° S 18:18:15 87° W 18:21:19 10° N
Cosmos 1975 Rocket 3.6 18:15:18 10° SSW 18:19:29 38° W 18:23:37 10° NNW
Cosmos 1371 Rocket 4.0 18:14:22 10° NW 18:19:30 60° WSW 18:24:42 10° SSE
Cosmos 1535 Rocket 4.5 18:13:28 10° NNW 18:19:45 79° W 18:26:02 10° S
Cosmos 1315 Rocket 4.0 18:17:09 10° WNW 18:20:05 20° WSW 18:23:02 10° SSW
NOAA 6 4.3 18:15:14 10° NNE 18:20:24 74° ESE 18:25:37 10° SSW
Cosmos 2219 Rocket 4.4 18:17:45 10° S 18:20:38 14° SSE 18:23:31 10° ESE
PSLV R/B 4.1 18:18:36 10° NNE 18:22:35 58° ESE 18:26:38 10° S
Cosmos 972 Rocket 3.9 18:19:11 10° NNW 18:24:15 88° WSW 18:29:15 10° SSE
Terra 4.4 18:22:07 10° E 18:24:59 16° ESE 18:27:52 10° SSE
Okean 2 Rocket 4.3 18:22:02 10° NNE 18:26:14 46° E 18:30:31 10° SSE
Cosmos 2151 Rocket 4.2 18:22:42 10° N 18:27:11 63° E 18:31:42 10° SSE
USA 281 3.8 18:21:56 10° SSE 18:27:49 35° SW 18:33:40 10° WNW
BREEZE-M DEB (TANK) 2.6 18:22:59 10° W 18:28:38 89° NNE 18:31:02 10° E
Cosmos 44 Rocket 3.1 18:25:26 10° NW 18:30:08 73° SW 18:34:47 10° SE
CZ-4C R/B 3.1 18:21:49 10° NW 18:30:41 84° SW 18:37:50 10° SE
Cosmos 1452 Rocket 4.4 18:26:03 10° N 18:31:13 57° ENE 18:36:27 10° SSE
Blok-L 3.6 18:29:26 10° SW 18:31:49 78° NW 18:36:57 10° NE
Resurs 01 Rocket 1.6 18:29:17 10° NNE 18:33:45 81° WNW 18:38:15 10° SSW
Cosmos 1741 Rocket 4.0 18:28:28 10° SSW 18:33:46 83° WNW 18:39:02 10° NNE
USA 229 DEB 4.4 18:30:47 10° WSW 18:36:05 28° WNW 18:40:57 10° N
USA 229 4.4 18:30:49 10° WSW 18:36:08 28° WNW 18:41:02 10° N
USA 215 3.4 18:30:28 10° ENE 18:37:06 85° NW 18:43:46 10° WSW
Okean 1 Rocket 3.9 18:34:58 10° N 18:39:15 56° E 18:43:34 10° SSE
Spot 4 Rocket 4.1 18:34:37 10° NNE 18:39:46 80° WNW 18:44:59 10° SSW
